Location: Aufkirchen
(47.9603°N, 11.3653°E)
Time: 15:10:35
(UTC+01:00)

Transit 4A - Pass Details

Date: 04 December 2020
Orbit: 864 x 980 km, 66.8° (Epoch: 26 January)

Event Time Altitude Azimuth Distance (km) Brightness Sun altitude
Rises 09:39:21 0° 271° (W) 3,666 10.7 12.5°
Reaches altitude 10° 09:42:39 10° 287° (WNW) 2,730 9.9 12.8°
Maximum altitude 09:47:19 21° 334° (NNW) 2,070 9.3 13.2°
Drops below altitude 10° 09:52:00 10° 21° (NNE) 2,738 10.1 13.7°
Sets 09:55:20 0° 38° (NE) 3,680 10.8 13.9°
